Flag Weather past 2 weeks in Bruck an der Leitha, Lower Austria, Austria

Now
43 °F

Overcast.


Feels Like: 39 °F
Forecast: 35 / 42 °F
Wind: 7 mph from Southeast

Location: Wien / Schwechat-Flughafen

Current Time: Nov 23, 2014 at 10:26:35 PM

Latest Report: Nov 23, 2014 at 9:00 PM


Visibility: 6 mi

Pressure: 30.38 "Hg

Humidity: 77%

Dew point: 36 °F

Location of Bruck an der LeithaLocation

Historic Weather in Bruck an der Leitha — Graph

°F

Bruck an der Leitha temperature yesterday

Maximum temperature yesterday: 43 °F (at 11:00 PM)
Minimum temperature yesterday: 39 °F (at 5:00 AM)
Average temperature yesterday: 41 °F

Past Weeks' High & Low Weather Summary

 TemperatureHumidityPressure
High64 °F (Nov 11, 1:00 PM)100% (Nov 9, 2:00 AM)30.42 "Hg (Nov 9, 2:00 AM)
Low36 °F (Nov 23, 7:00 AM)66% (Nov 11, 1:00 PM)29.69 "Hg (Nov 16, 6:00 AM)
Average48 °F87%29.99 "Hg
* Reported Nov 8 9:00 PM — Nov 23 9:00 PM, Bruck an der Leitha, Weather by CustomWeather, © 2014

Note: Actual official high and low records may vary slightly from our data, if they occured in-between our weather recording intervals... More about our weather records

Advertising

Bruck an der Leitha weather history for previous 24 hours

 ConditionsComfort  
Time TempWeatherWind HumidityBarometerVisibility
9:00 PM
Nov 23
43 °FOvercast.7 mph77%30.38 "Hg6 mi
8:00 PM43 °FOvercast.6 mph79%30.39 "Hg7 mi
7:00 PM43 °FOvercast.6 mph79%30.39 "Hg6 mi
6:00 PM43 °FOvercast.5 mph82%30.39 "Hg6 mi
5:00 PM42 °FOvercast.5 mph82%30.39 "Hg6 mi
4:00 PM43 °FPartly sunny.5 mph80%30.39 "Hg6 mi
3:00 PM45 °FPassing clouds.7 mph74%30.39 "Hg7 mi
2:00 PM45 °FPassing clouds.7 mph73%30.39 "Hg7 mi
1:00 PM45 °FPassing clouds.7 mph74%30.39 "Hg7 mi
12:00 PM44 °FPassing clouds.8 mph76%30.41 "Hg6 mi
11:00 AM42 °FPassing clouds.7 mph79%30.42 "Hg6 mi
10:00 AM42 °FPassing clouds.6 mph81%30.42 "Hg6 mi
9:00 AM40 °FPassing clouds.6 mph85%30.41 "Hg4 mi
8:00 AM37 °FScattered clouds.5 mph89%30.40 "Hg4 mi
7:00 AM36 °FPassing clouds.3 mph92%30.37 "Hg4 mi
6:00 AM37 °FClear.5 mph92%30.37 "Hg4 mi
5:00 AM37 °FClear.3 mph92%30.37 "Hg4 mi
4:00 AM38 °FClear.5 mph90%30.36 "Hg4 mi
3:00 AM39 °FPassing clouds.5 mph88%30.37 "Hg5 mi
2:00 AM40 °FPassing clouds.5 mph88%30.37 "Hg5 mi
1:00 AM40 °FPassing clouds.6 mph88%30.35 "Hg6 mi
12:00 AM42 °FOvercast.5 mph86%30.34 "Hg6 mi
11:00 PM
Nov 22
43 °FOvercast.6 mph86%30.34 "Hg6 mi
10:00 PM42 °FOvercast.5 mph88%30.34 "Hg5 mi
Weather by CustomWeather, © 2014

See weather overviewHow to use our weather pages